Monistrol de Calders (Moianès)





Hora UTC 23:20
Temperatura 10.1 ºC
Humitat 47.0 %
Pressió 1010.0 hPa
Pluja 0.0 mm
Velocitat vent 0.0 km/h
Direcció vent NW

Dades diàries 2024-02-27



Hora UTC (hivern +1h; estiu +2h)
Temperatura (ºC) Humitat (%) Pressió (hPa) Velocitat vent (km/h) Precipitació (mm)
Hora UTC Aire Humitat Pressió Vel. Dir. Vel. Max Dir. Intent. màx 5 min.
00:05 6.1 83.0 1001.7 0.0 NW 0.0 0.0
00:10 6.2 83.0 1001.7 0.0 NW 0.0 0.0
00:15 6.2 83.0 1001.6 0.0 NW 0.0 0.0
00:20 6.2 83.0 1001.7 0.0 NW 0.0 0.0
00:25 6.1 83.0 1001.8 0.0 NW 0.0 0.0
00:30 6.1 83.0 1001.8 0.0 NW 0.0 0.0
00:35 6.0 83.0 1001.8 0.0 NW 0.0 0.0
00:40 5.9 83.0 1001.9 0.0 NW 0.0 0.0
00:45 5.8 83.0 1001.9 0.0 NW 0.0 0.0
00:50 5.8 83.0 1002.0 0.0 NW 0.0 0.0
00:55 5.7 83.0 1002.1 0.0 NW 0.0 0.0
01:00 5.6 84.0 1002.1 0.0 NW 0.0 0.0
01:05 5.6 84.0 1002.2 0.0 NW 0.0 0.0
01:10 5.4 84.0 1002.3 0.0 NW 0.0 0.0
01:15 5.3 84.0 1002.3 0.0 NW 0.0 0.0
01:20 5.2 84.0 1002.3 0.0 NW 0.0 0.0
01:25 5.1 84.0 1002.4 0.0 NW 0.0 0.0
01:30 4.8 84.0 1002.4 0.0 NW 0.0 0.0
01:35 4.7 84.0 1002.5 0.0 NW 0.0 0.0
01:40 4.6 85.0 1002.5 0.0 NW 0.0 0.0
01:45 4.5 85.0 1002.5 0.0 NW 0.0 0.0
01:50 4.3 85.0 1002.6 0.0 NW 0.0 0.0
01:55 4.2 85.0 1002.7 0.0 NW 0.0 0.0
02:00 4.1 85.0 1002.7 0.0 NW 0.0 0.0
02:05 4.1 85.0 1002.6 0.0 NW 0.0 0.0
02:10 4.0 85.0 1002.6 0.0 NW 0.0 0.0
02:15 3.9 86.0 1002.7 0.0 NW 0.0 0.0
02:20 3.8 86.0 1002.8 0.0 NNE 0.0 0.0
02:25 3.8 86.0 1002.7 0.0 NNE 0.0 0.0
02:30 3.7 86.0 1002.8 0.0 NNE 0.0 0.0
02:35 3.6 86.0 1002.7 0.0 NNE 0.0 0.0
02:40 3.4 86.0 1002.8 0.0 NNE 0.0 0.0
02:45 3.3 86.0 1002.9 0.0 NNE 0.0 0.0
02:50 3.2 86.0 1002.7 0.0 NNE 0.0 0.0
02:55 3.0 86.0 1002.7 0.0 NNE 0.0 0.0
03:00 2.8 86.0 1002.8 0.0 NNE 0.0 0.0
03:05 2.7 86.0 1002.8 0.0 NNE 0.0 0.0
03:10 2.6 87.0 1002.9 0.0 NNE 0.0 0.0
03:15 2.4 87.0 1003.0 0.0 NNE 0.0 0.0
03:20 2.4 87.0 1003.0 0.0 NNE 0.0 0.0
03:25 2.4 87.0 1003.2 0.0 NNE 0.0 0.0
03:30 2.5 87.0 1003.2 0.0 NNE 0.0 0.0
03:35 2.6 87.0 1003.3 0.0 NNE 0.0 0.0
03:40 2.7 87.0 1003.4 0.0 NNE 0.0 0.0
03:45 2.7 87.0 1003.5 0.0 NNE 0.0 0.0
03:50 2.9 88.0 1003.4 0.0 NNE 0.0 0.0
03:55 3.0 88.0 1003.4 0.0 NNE 0.0 0.0
04:00 3.1 87.0 1003.4 0.0 NNE 0.0 0.0
04:05 3.2 87.0 1003.4 0.0 NNE 0.0 0.0
04:10 3.3 88.0 1003.4 0.0 NNE 0.0 0.0
04:15 3.3 88.0 1003.3 0.0 NNE 0.0 0.0
04:20 3.3 87.0 1003.5 0.0 NNE 0.0 0.0
04:25 3.2 87.0 1003.5 0.0 NNE 0.0 0.0
04:30 3.2 87.0 1003.7 0.0 NNE 0.0 0.0
04:35 3.2 88.0 1003.7 0.0 NNE 0.0 0.0
04:40 3.2 88.0 1003.7 0.0 NNE 0.0 0.0
04:45 3.2 88.0 1003.9 0.0 NNE 0.0 0.0
04:50 3.3 88.0 1004.0 0.0 NNE 0.0 0.0
04:55 3.4 88.0 1004.0 0.0 NNE 0.0 0.0
05:00 3.4 88.0 1004.0 0.0 NNE 0.0 0.0
05:05 3.6 88.0 1004.1 0.0 NNE 0.0 0.0
05:10 3.7 88.0 1004.2 0.0 NNE 0.0 0.0
05:15 3.7 87.0 1004.1 0.0 NNE 0.0 0.0
05:20 3.7 87.0 1004.1 0.0 NNE 0.0 0.0
05:25 3.7 87.0 1004.2 0.0 NNE 0.0 0.0
05:30 3.7 87.0 1004.3 0.0 NNE 0.0 0.0
05:35 3.8 87.0 1004.2 0.0 NNE 0.0 0.0
05:40 3.8 87.0 1004.3 0.0 NNE 0.0 0.0
05:45 3.9 87.0 1004.4 0.0 NNE 0.0 0.0
05:50 4.0 88.0 1004.5 0.0 NNE 0.0 0.0
05:55 4.1 88.0 1004.5 0.0 NNE 0.0 0.0
06:00 4.2 88.0 1004.5 0.0 NNE 0.0 0.0
06:05 4.2 87.0 1004.6 0.0 NNE 0.0 0.0
06:10 4.2 87.0 1004.7 0.0 NNE 0.0 0.0
06:15 4.2 87.0 1004.7 0.0 NNE 0.0 0.0
06:20 4.2 87.0 1004.8 0.0 NNE 0.0 0.0
06:25 4.3 87.0 1004.7 0.0 NNE 0.0 0.0
06:30 4.3 87.0 1004.6 0.0 NNE 0.0 0.0
06:35 4.3 87.0 1004.7 0.0 NNE 0.0 0.0
06:40 4.3 87.0 1004.8 0.0 NNE 0.0 0.0
06:45 4.4 87.0 1004.9 0.0 NNE 0.0 0.0
06:50 4.4 87.0 1005.0 0.0 NNW 0.0 0.0
06:55 4.6 87.0 1005.1 0.0 NNW 0.0 0.0
07:00 4.7 87.0 1005.1 0.0 NW 0.0 0.0
07:05 4.8 87.0 1005.2 0.0 NW 1.6 0.0
07:10 4.8 87.0 1005.4 0.0 NW 1.6 0.0
07:15 4.8 87.0 1005.6 0.0 WNW 3.2 0.0
07:20 4.9 87.0 1005.6 0.0 NNW 3.2 0.0
07:25 4.9 87.0 1005.7 0.0 NNW 1.6 0.0
07:30 4.9 87.0 1005.8 0.0 WNW 1.6 0.0
07:35 4.9 87.0 1005.8 0.0 WNW 0.0 0.0
07:40 5.0 86.0 1005.9 1.6 NW 1.6 0.0
07:45 5.0 86.0 1006.0 0.0 NNW 1.6 0.0
07:50 5.1 86.0 1006.0 0.0 WNW 0.0 0.0
07:55 5.1 86.0 1006.1 0.0 NNW 0.0 0.0
08:00 5.1 86.0 1006.1 0.0 N 0.0 0.0
08:05 5.1 86.0 1006.1 0.0 N 0.0 0.0
08:10 5.1 86.0 1006.2 0.0 N 0.0 0.0
08:15 5.1 86.0 1006.2 0.0 W 0.0 0.0
08:20 5.2 86.0 1006.1 0.0 W 0.0 0.0
08:25 5.2 86.0 1006.1 0.0 W 0.0 0.0
08:30 5.2 86.0 1006.2 0.0 W 0.0 0.0
08:35 5.3 86.0 1006.3 0.0 NNW 0.0 0.0
08:40 5.3 86.0 1006.3 0.0 WNW 0.0 0.0
08:45 5.5 86.0 1006.4 0.0 WNW 0.0 0.0
08:50 5.5 85.0 1006.5 0.0 W 0.0 0.0
08:55 5.5 85.0 1006.5 0.0 WNW 0.0 0.0
09:00 5.7 85.0 1006.7 0.0 WNW 0.0 0.0
09:05 5.8 85.0 1006.8 0.0 WNW 0.0 0.0
09:10 5.9 84.0 1006.8 0.0 WNW 0.0 0.0
09:15 6.1 84.0 1006.7 0.0 WNW 0.0 0.0
09:20 6.1 84.0 1006.8 0.0 WNW 0.0 0.0
09:25 6.2 83.0 1006.9 0.0 NW 0.0 0.0
09:30 6.3 83.0 1007.0 0.0 WNW 1.6 0.0
09:35 6.4 83.0 1007.0 0.0 N 1.6 0.0
09:40 6.6 82.0 1007.1 0.0 NNW 1.6 0.0
09:45 6.8 82.0 1007.3 0.0 NNW 1.6 0.0
09:50 7.2 81.0 1007.3 0.0 NNW 0.0 0.0
09:55 7.3 80.0 1007.3 0.0 NNW 1.6 0.0
10:00 7.4 80.0 1007.3 0.0 NNW 1.6 0.0
10:05 7.6 79.0 1007.4 0.0 NNE 0.0 0.0
10:10 7.8 78.0 1007.3 0.0 NE 0.0 0.0
10:15 8.1 77.0 1007.3 0.0 NNW 0.0 0.0
10:20 8.4 76.0 1007.4 0.0 NNW 0.0 0.0
10:25 8.5 74.0 1007.3 0.0 NW 0.0 0.0
10:30 8.6 73.0 1007.3 0.0 NNE 0.0 0.0
10:35 8.7 73.0 1007.3 0.0 E 0.0 0.0
10:40 9.2 73.0 1007.3 0.0 NW 0.0 0.0
10:45 9.7 71.0 1007.3 0.0 NNW 0.0 0.0
10:50 10.1 69.0 1007.3 0.0 N 0.0 0.0
10:55 10.1 66.0 1007.3 1.6 ENE 3.2 0.0
11:00 9.8 67.0 1007.2 0.0 NE 3.2 0.0
11:05 9.8 67.0 1007.3 0.0 E 0.0 0.0
11:10 10.3 68.0 1007.3 0.0 ENE 0.0 0.0
11:15 10.8 65.0 1007.1 0.0 WNW 0.0 0.0
11:20 11.0 64.0 1007.2 0.0 W 0.0 0.0
11:25 11.2 63.0 1007.2 0.0 WSW 3.2 0.0
11:30 11.5 63.0 1007.2 0.0 WSW 3.2 0.0
11:35 11.9 62.0 1007.1 0.0 WNW 1.6 0.0
11:40 12.2 60.0 1007.0 0.0 WNW 1.6 0.0
11:45 12.3 57.0 1007.1 0.0 SW 3.2 0.0
11:50 12.4 56.0 1007.1 0.0 NW 8.0 0.0
11:55 12.7 56.0 1007.1 0.0 W 8.0 0.0
12:00 12.9 55.0 1007.1 0.0 NW 1.6 0.0
12:05 13.2 56.0 1007.0 0.0 WNW 0.0 0.0
12:10 13.3 54.0 1007.0 0.0 WSW 0.0 0.0
12:15 13.6 54.0 1007.0 0.0 WNW 4.8 0.0
12:20 13.7 53.0 1007.0 1.6 W 4.8 0.0
12:25 13.6 53.0 1006.9 0.0 WSW 6.4 0.0
12:30 13.8 52.0 1006.9 0.0 SSW 1.6 0.0
12:35 14.0 52.0 1006.9 0.0 WNW 1.6 0.0
12:40 14.4 53.0 1006.8 0.0 WNW 0.0 0.0
12:45 14.2 50.0 1006.8 0.0 SW 4.8 0.0
12:50 14.2 49.0 1006.7 0.0 NW 6.4 0.0
12:55 14.2 50.0 1006.7 0.0 WNW 4.8 0.0
13:00 14.6 50.0 1006.7 0.0 NW 4.8 0.0
13:05 15.2 48.0 1006.7 0.0 WSW 4.8 0.0
13:10 15.0 47.0 1006.6 0.0 SSW 3.2 0.0
13:15 15.1 48.0 1006.6 0.0 WNW 3.2 0.0
13:20 15.1 47.0 1006.6 0.0 W 4.8 0.0
13:25 15.2 47.0 1006.6 0.0 WSW 4.8 0.0
13:30 15.4 47.0 1006.5 0.0 NW 4.8 0.0
13:35 15.8 45.0 1006.5 0.0 N 4.8 0.0
13:40 15.7 41.0 1006.5 0.0 WNW 3.2 0.0
13:45 15.8 43.0 1006.3 0.0 S 3.2 0.0
13:50 15.9 43.0 1006.2 0.0 SSE 6.4 0.0
13:55 15.9 42.0 1006.3 0.0 ESE 6.4 0.0
14:00 16.2 41.0 1006.3 0.0 N 1.6 0.0
14:05 16.2 41.0 1006.3 0.0 WSW 1.6 0.0
14:10 15.8 41.0 1006.4 8.0 WSW 8.0 0.0
14:15 15.2 42.0 1006.3 0.0 WNW 17.7 0.0
14:20 14.9 43.0 1006.3 0.0 WSW 6.4 0.0
14:25 14.8 43.0 1006.1 4.8 WNW 17.7 0.0
14:30 15.0 44.0 1006.3 0.0 W 17.7 0.0
14:35 15.2 43.0 1006.3 0.0 W 14.5 0.0
14:40 15.2 43.0 1006.5 0.0 WNW 14.5 0.0
14:45 15.2 43.0 1006.6 0.0 NNW 3.2 0.0
14:50 15.2 43.0 1006.6 0.0 NNW 3.2 0.0
14:55 15.3 42.0 1006.6 0.0 NNW 4.8 0.0
15:00 15.3 42.0 1006.6 0.0 NW 4.8 0.0
15:05 15.3 42.0 1006.6 0.0 NW 3.2 0.0
15:10 15.2 43.0 1006.5 0.0 WSW 3.2 0.0
15:15 15.0 43.0 1006.6 0.0 SW 1.6 0.0
15:20 14.9 44.0 1006.7 1.6 WNW 3.2 0.0
15:25 14.9 44.0 1006.6 0.0 W 8.0 0.0
15:30 14.8 44.0 1006.6 0.0 N 8.0 0.0
15:35 14.9 44.0 1006.6 0.0 NNW 4.8 0.0
15:40 15.2 44.0 1006.7 0.0 NW 4.8 0.0
15:45 15.2 42.0 1006.9 0.0 NW 9.7 0.0
15:50 15.1 38.0 1007.0 0.0 N 9.7 0.0
15:55 14.9 36.0 1007.1 0.0 NNE 9.7 0.0
16:00 14.7 35.0 1007.1 0.0 NNW 12.9 0.0
16:05 14.5 35.0 1007.0 0.0 NNW 6.4 0.0
16:10 14.3 36.0 1007.1 4.8 NW 9.7 0.0
16:15 14.2 36.0 1007.0 0.0 NW 19.3 0.0
16:20 14.2 36.0 1007.0 0.0 NW 0.0 0.0
16:25 14.3 35.0 1007.1 0.0 NNW 8.0 0.0
16:30 14.4 34.0 1007.1 0.0 N 9.7 0.0
16:35 14.5 33.0 1007.1 0.0 NNW 9.7 0.0
16:40 14.4 33.0 1007.2 0.0 NNW 1.6 0.0
16:45 14.3 33.0 1007.3 0.0 N 4.8 0.0
16:50 14.2 34.0 1007.3 0.0 WSW 4.8 0.0
16:55 14.1 34.0 1007.4 0.0 NNW 0.0 0.0
17:00 13.9 34.0 1007.4 0.0 N 1.6 0.0
17:05 13.8 35.0 1007.5 0.0 NE 6.4 0.0
17:10 13.7 35.0 1007.6 0.0 NE 6.4 0.0
17:15 13.5 35.0 1007.7 0.0 NNE 0.0 0.0
17:20 13.3 36.0 1007.6 0.0 NW 0.0 0.0
17:25 13.2 36.0 1007.7 0.0 NW 0.0 0.0
17:30 13.1 37.0 1007.8 0.0 NW 0.0 0.0
17:35 12.9 37.0 1007.8 0.0 NW 0.0 0.0
17:40 12.8 38.0 1007.8 0.0 NW 0.0 0.0
17:45 12.6 39.0 1007.9 0.0 NW 0.0 0.0
17:50 12.4 39.0 1007.9 0.0 NW 0.0 0.0
17:55 12.2 38.0 1007.8 0.0 NW 0.0 0.0
18:00 12.2 39.0 1007.9 0.0 NNE 0.0 0.0
18:05 12.2 38.0 1008.0 0.0 N 1.6 0.0
18:10 12.3 38.0 1008.1 0.0 N 6.4 0.0
18:15 12.4 37.0 1008.2 0.0 NNW 6.4 0.0
18:20 12.4 38.0 1008.4 0.0 NW 0.0 0.0
18:25 12.5 38.0 1008.5 0.0 NNW 1.6 0.0
18:30 12.5 38.0 1008.5 0.0 NNW 3.2 0.0
18:35 12.5 38.0 1008.4 0.0 N 3.2 0.0
18:40 12.5 38.0 1008.5 0.0 N 3.2 0.0
18:45 12.5 38.0 1008.4 0.0 NNW 0.0 0.0
18:50 12.5 39.0 1008.4 0.0 NNW 0.0 0.0
18:55 12.4 38.0 1008.5 0.0 NW 0.0 0.0
19:00 12.3 39.0 1008.5 0.0 WNW 0.0 0.0
19:05 12.2 39.0 1008.5 0.0 WNW 1.6 0.0
19:10 12.2 39.0 1008.6 0.0 WNW 0.0 0.0
19:15 12.1 39.0 1008.7 0.0 NW 1.6 0.0
19:20 12.1 40.0 1008.8 0.0 NW 1.6 0.0
19:25 12.0 40.0 1008.8 0.0 NW 0.0 0.0
19:30 11.8 40.0 1008.9 0.0 NW 0.0 0.0
19:35 11.7 41.0 1009.0 0.0 NW 0.0 0.0
19:40 11.6 41.0 1009.0 0.0 NW 0.0 0.0
19:45 11.5 43.0 1009.0 0.0 NW 0.0 0.0
19:50 11.3 44.0 1009.2 0.0 NW 0.0 0.0
19:55 11.2 43.0 1009.2 0.0 NW 0.0 0.0
20:00 10.9 45.0 1009.3 0.0 NW 0.0 0.0
20:05 10.6 46.0 1009.3 0.0 NW 0.0 0.0
20:10 10.3 47.0 1009.4 0.0 NW 0.0 0.0
20:15 10.2 47.0 1009.5 0.0 NE 0.0 0.0
20:20 10.0 48.0 1009.6 0.0 NW 0.0 0.0
20:25 9.9 47.0 1009.7 0.0 NW 0.0 0.0
20:30 10.1 47.0 1009.6 0.0 NE 0.0 0.0
20:35 10.2 46.0 1009.6 0.0 NNW 0.0 0.0
20:40 10.3 46.0 1009.4 0.0 NW 3.2 0.0
20:45 10.4 45.0 1009.5 0.0 NNW 4.8 0.0
20:50 10.8 44.0 1009.4 0.0 NNE 4.8 0.0
20:55 11.1 43.0 1009.6 1.6 NNW 6.4 0.0
21:00 11.3 42.0 1009.6 0.0 NW 6.4 0.0
21:05 11.4 42.0 1009.7 0.0 NNW 4.8 0.0
21:10 11.4 42.0 1009.8 0.0 NNW 0.0 0.0
21:15 11.4 42.0 1009.7 0.0 NNW 0.0 0.0
21:20 11.5 41.0 1009.7 0.0 N 9.7 0.0
21:25 11.5 41.0 1009.8 0.0 NW 9.7 0.0
21:30 11.5 41.0 1009.8 0.0 NNW 0.0 0.0
21:35 11.4 41.0 1009.8 0.0 N 0.0 0.0
21:40 11.4 41.0 1010.0 0.0 NNW 0.0 0.0
21:45 11.4 42.0 1010.0 0.0 NW 0.0 0.0
21:50 11.3 42.0 1010.1 0.0 NW 0.0 0.0
21:55 11.3 42.0 1010.1 0.0 NW 0.0 0.0
22:00 11.2 42.0 1010.0 0.0 NW 0.0 0.0
22:05 11.2 43.0 1010.1 0.0 NW 0.0 0.0
22:10 11.1 43.0 1010.1 0.0 NW 0.0 0.0
22:15 10.9 43.0 1010.1 0.0 NW 0.0 0.0
22:20 10.8 44.0 1010.0 0.0 NW 0.0 0.0
22:25 10.7 44.0 1010.1 0.0 NW 0.0 0.0
22:30 10.6 45.0 1010.0 0.0 NW 0.0 0.0
22:35 10.4 45.0 1010.1 0.0 NW 0.0 0.0
22:40 10.3 46.0 1010.0 0.0 WNW 0.0 0.0
22:45 10.3 46.0 1010.1 0.0 WNW 0.0 0.0
22:50 10.3 46.0 1009.9 0.0 WNW 0.0 0.0
22:55 10.4 46.0 1009.9 0.0 NW 1.6 0.0
23:00 10.4 46.0 1009.8 0.0 NW 1.6 0.0
23:05 10.4 45.0 1009.8 0.0 NW 0.0 0.0
23:10 10.3 46.0 1009.9 0.0 NW 0.0 0.0
23:15 10.2 47.0 1010.0 0.0 NW 0.0 0.0
23:20 10.1 47.0 1010.0 0.0 NW 0.0 0.0
Màxima 16.3 88.0 1010.1 8.0 WSW 19.3 0.0
Mínima 2.4 33.0 1001.6
Total 0.0